This is the latest recevied weather packets stored in our database for station/object EA7AZH-5. If no packets are shown the sender has not sent any weather packets the latest 10 day(s).
| Time | Temp. | Humidity | Pressure | Rain* | Wind** | Luminosity | Snow |
|---|---|---|---|---|---|---|---|
| 1778145120 | 21.67° C | 62% | 1010.3 hPa | - | - | - | - |
| 1778143920 | 21.67° C | 60% | 1010.5 hPa | - | - | - | - |
| 1778140320 | 21.67° C | 61% | 1010.2 hPa | - | - | - | - |
| 1778139720 | 20.56° C | 64% | 1010 hPa | - | - | - | - |
| 1778133125 | 19.44° C | 48% | 1009.3 hPa | - | - | - | - |
| 1778132520 | 19.44° C | 49% | 1009.2 hPa | - | - | - | - |
| 1778128920 | 19.44° C | 49% | 1008.8 hPa | - | - | - | - |
| 1778127125 | 18.89° C | 49% | 1008.8 hPa | - | - | - | - |
| 1778125920 | 19.44° C | 49% | 1008.7 hPa | - | - | - | - |
| 1778125320 | 19.44° C | 48% | 1008.6 hPa | - | - | - | - |
| 1778124720 | 19.44° C | 49% | 1008.8 hPa | - | - | - | - |
| 1778116319 | 19.44° C | 50% | 1009 hPa | - | - | - | - |
| 1778114524 | 19.44° C | 50% | 1009.2 hPa | - | - | - | - |
| 1778113919 | 19.44° C | 52% | 1009.3 hPa | - | - | - | - |
| 1778112119 | 20.56° C | 51% | 1009.6 hPa | - | - | - | - |
| 1778107924 | 20.56° C | 62% | 1009.9 hPa | - | - | - | - |
| 1778107319 | 21.11° C | 61% | 1009.9 hPa | - | - | - | - |
| 1778105524 | 20.56° C | 61% | 1009.9 hPa | - | - | - | - |
| 1778101923 | 21.11° C | 61% | 1009.9 hPa | - | - | - | - |
| 1778100119 | 21.11° C | 59% | 1009.6 hPa | - | - | - | - |
| 1778099518 | 20.56° C | 61% | 1009.4 hPa | - | - | - | - |
| 1778095318 | 20.56° C | 60% | 1008.2 hPa | - | - | - | - |
| 1778093518 | 21.67° C | 63% | 1007.9 hPa | - | - | - | - |
| 1778089318 | 21.67° C | 60% | 1007.8 hPa | - | - | - | - |
| 1778087518 | 21.11° C | 61% | 1008.1 hPa | - | - | - | - |
* Rain since midnight (hover to see other rain measurements)
** Current wind speed in m/s (hover to see current wind gust speed)